Dunkirk, NY

2:03 AM EDT on June 24, 2017 (GMT -0400)
Chautauqua County-Dunkirk

Weather History for KDKK - January, 2014

Change the Weather History Date:

Wednesday, January 29, 2014

  Actual Average Record
Temperature  
Mean Temperature 6 °F -  
Max Temperature 14 °F 32 °F 60 °F (1975)
Min Temperature -2 °F 18 °F -5 °F (1977)
Degree Days  
Heating Degree Days 59    
Moisture  
Dew Point -4 °F    
Average Humidity 60    
Maximum Humidity 66    
Minimum Humidity 47    
Precipitation  
Precipitation 0.00 in - - ()
Sea Level Pressure  
Sea Level Pressure 30.19 in    
Wind  
Wind Speed 15 mph (SW)    
Max Wind Speed 25 mph    
Max Gust Speed 40 mph    
Visibility 9 miles    
Events Snow    
Averages and records for this station are not official NWS values.
T = Trace of Precipitation, MM = Missing Value Source: NWS Daily Summary

Daily Weather History Graph

Daily Weather History Graph

Search for Another Location

Airport or City:

Trip Planner

Search our weather history database for the weather conditions in past years. The results will help you decide how hot, cold, wet, or windy it might be!

Date:

Astronomy

Jan. 29, 2014 Rise Set
Actual Time 7:33 AM EST 5:27 PM EST
Civil Twilight 7:03 AM EST 5:57 PM EST
Nautical Twilight 6:30 AM EST 6:30 PM EST
Astronomical Twilight 5:56 AM EST 7:04 PM EST
Moon 6:09 AM EST (1/29) 4:24 PM EST (1/29)
Length of Visible Light 10h 53m
Length of Day
9h 53m
Waning Crescent, 2% of the Moon is Illuminated
Jan 29
Waning Crescent
Jan 30
New
Feb 6
First Quarter
Feb 14
Full
Feb 22
Last Quarter

Hourly Weather History & Observations

Time (EST) Temp. Windchill Dew Point Humidity Pressure Visibility Wind Dir Wind Speed Gust Speed Precip Events Conditions
12:53 AM 1.9 °F -15.5 °F -13.0 °F 50% 30.24 in 10.0 mi SW 12.7 mph 18.4 mph N/A   Clear
1:53 AM 1.0 °F -15.8 °F -11.9 °F 55% 30.22 in 10.0 mi SSW 11.5 mph - N/A   Clear
2:53 AM -0.9 °F -15.3 °F -11.9 °F 60% 30.22 in 10.0 mi SSW 8.1 mph - N/A   Clear
3:53 AM -0.9 °F -17.4 °F -11.0 °F 62% 30.19 in 10.0 mi SSW 10.4 mph 18.4 mph N/A   Clear
4:53 AM -2.0 °F -21.2 °F -11.9 °F 63% 30.18 in 10.0 mi SSW 13.8 mph - N/A   Clear
5:53 AM -0.0 °F -18.7 °F -9.0 °F 66% 30.16 in 10.0 mi SW 13.8 mph - N/A   Clear
6:53 AM -0.0 °F -17.1 °F -9.0 °F 66% 30.16 in 10.0 mi SSW 11.5 mph - N/A   Clear
7:53 AM -0.0 °F -17.1 °F -9.0 °F 66% 30.15 in 10.0 mi SSW 11.5 mph - N/A   Scattered Clouds
8:53 AM 3.9 °F -17.6 °F -6.0 °F 64% 30.15 in 10.0 mi SW 21.9 mph 28.8 mph 0.00 in Snow Light Snow
9:53 AM 6.1 °F -12.8 °F -4.0 °F 63% 30.16 in 10.0 mi SW 17.3 mph 26.5 mph 0.00 in   Overcast
10:53 AM 9.0 °F -11.8 °F -2.0 °F 61% 30.16 in 5.0 mi WSW 24.2 mph 39.1 mph 0.00 in Snow Light Snow
11:53 AM 10.9 °F -9.2 °F -0.9 °F 59% 30.15 in 7.0 mi SW 24.2 mph 34.5 mph 0.00 in Snow Light Snow
12:53 PM 12.0 °F -7.7 °F -0.0 °F 59% 30.13 in 6.0 mi WSW 24.2 mph 38.0 mph 0.00 in Snow Light Snow
1:53 PM 12.9 °F -6.5 °F 1.0 °F 59% 30.14 in 9.0 mi WSW 24.2 mph 40.3 mph 0.00 in Snow Light Snow
2:53 PM 14.0 °F -5.5 °F 1.9 °F 59% 30.14 in 9.0 mi West 25.3 mph 36.8 mph 0.00 in   Clear
3:53 PM 14.0 °F -4.7 °F 1.9 °F 59% 30.15 in 9.0 mi WSW 23.0 mph 32.2 mph 0.00 in   Clear
4:53 PM 12.9 °F -5.3 °F 1.9 °F 62% 30.18 in 10.0 mi WSW 20.7 mph 29.9 mph 0.00 in   Clear
5:53 PM 12.9 °F -2.8 °F 1.9 °F 62% 30.20 in 10.0 mi WSW 15.0 mph 23.0 mph N/A   Clear
6:53 PM 12.9 °F -2.2 °F 1.9 °F 62% 30.23 in 10.0 mi SW 13.8 mph - N/A   Clear
7:53 PM 12.9 °F -1.6 °F 1.9 °F 62% 30.24 in 10.0 mi WSW 12.7 mph 18.4 mph N/A   Clear
8:53 PM 10.9 °F 2.9 °F -0.0 °F 61% 30.26 in 10.0 mi SW 4.6 mph - N/A   Clear
9:53 PM 12.9 °F -1.6 °F -4.0 °F 47% 30.27 in 10.0 mi SW 12.7 mph 20.7 mph N/A   Clear
10:53 PM 12.9 °F -2.8 °F -2.9 °F 49% 30.28 in 10.0 mi SW 15.0 mph 20.7 mph N/A   Clear
11:53 PM 12.9 °F -1.6 °F -0.9 °F 54% 30.29 in 10.0 mi SW 12.7 mph - N/A   Clear